This is the latest recevied weather packets stored in our database for station/object KC5AV. If no packets are shown the sender has not sent any weather packets the latest 10 day(s).
| Time | Temp. | Humidity | Pressure | Rain* | Wind** | Luminosity | Snow |
|---|---|---|---|---|---|---|---|
| 1787505822 | 37.78° C | 43% | 1017.1 hPa | 0 mm | - | 857 W/m² | - |
| 1787505522 | 37.22° C | 44% | 1017.3 hPa | 0 mm | - | 850 W/m² | - |
| 1787505217 | 37.22° C | 45% | 1017.3 hPa | 0 mm | - | 846 W/m² | - |
| 1787504916 | 37.22° C | 44% | 1017.3 hPa | 0 mm | - | 836 W/m² | - |
| 1787504612 | 36.67° C | 45% | 1017.5 hPa | 0 mm | - | 834 W/m² | - |
| 1787504308 | 36.67° C | 46% | 1017.7 hPa | 0 mm | - | 818 W/m² | - |
| 1787504004 | 36.11° C | 48% | 1017.8 hPa | 0 mm | - | 818 W/m² | - |
| 1787503703 | 36.67° C | 46% | 1017.9 hPa | 0 mm | - | 815 W/m² | - |
| 1787503400 | 36.11° C | 49% | 1017.6 hPa | 0 mm | - | 804 W/m² | - |
| 1787503096 | 35.56° C | 48% | 1017.7 hPa | 0 mm | - | 792 W/m² | - |
| 1787502792 | 35.56° C | 47% | 1017.8 hPa | 0 mm | - | 786 W/m² | - |
| 1787502492 | 35.56° C | 48% | 1017.7 hPa | 0 mm | - | 781 W/m² | - |
| 1787502191 | 35.56° C | 48% | 1017.7 hPa | 0 mm | - | 766 W/m² | - |
| 1787501887 | 35.56° C | 49% | 1017.8 hPa | 0 mm | - | 746 W/m² | - |
| 1787501583 | 36.11° C | 47% | 1017.9 hPa | 0 mm | - | 729 W/m² | - |
| 1787501279 | 35.56° C | 51% | 1017.9 hPa | 0 mm | - | 727 W/m² | - |
| 1787500975 | 35° C | 49% | 1017.8 hPa | 0 mm | - | 718 W/m² | - |
| 1787500670 | 35.56° C | 49% | 1017.8 hPa | 0 mm | - | 693 W/m² | - |
| 1787500366 | 35° C | 50% | 1017.9 hPa | 0 mm | - | 689 W/m² | - |
| 1787500065 | 35° C | 51% | 1018 hPa | 0 mm | - | 669 W/m² | - |
| 1787499760 | 34.44° C | 51% | 1017.9 hPa | 0 mm | - | 656 W/m² | - |
| 1787499454 | 34.44° C | 51% | 1017.9 hPa | 0 mm | - | 636 W/m² | - |
| 1787499151 | 34.44° C | 51% | 1017.9 hPa | 0 mm | - | 580 W/m² | - |
| 1787498847 | 34.44° C | 51% | 1018 hPa | 0 mm | - | 582 W/m² | - |
| 1787498544 | 33.89° C | 53% | 1017.9 hPa | 0 mm | - | 603 W/m² | - |
* Rain latest hour (hover to see other rain measurements)
** Current wind speed in m/s (hover to see current wind gust speed)